Flag for Canada Weather past 2 weeks in Glace Bay, Nova Scotia, Canada

Now
28 °F

Passing clouds.


Feels Like: 18 °F
Forecast: 27 / 33 °F
Wind: 13 mph from North

Location: Sydney


UV Index: 5 (Moderate)

Visibility: 15 mi


Pressure: 30.63 "Hg

Humidity: 64%

Dew point: 18 °F

Location of Glace BayLocation

Historic Weather in Glace Bay

°F

Glace Bay temperature yesterday

Maximum temperature yesterday: 59 °F (at 1:00 PM)
Minimum temperature yesterday: 28 °F (at 11:00 PM)
Average temperature yesterday: 47 °F

Past Weeks' High & Low Weather Summary

 TemperatureHumidityPressure
High63 °F (Apr 15, 3:00 PM)100% (Apr 2, 6:00 AM)30.60 "Hg (Apr 2, 6:00 AM)
Low19 °F (Apr 3, 6:00 AM)36% (Apr 7, 3:00 PM)29.31 "Hg (Apr 9, 7:00 AM)
Average36 °F79%30.01 "Hg
* Reported Apr 2 5:00 AM — Apr 17 5:00 AM, Glace Bay, Weather by CustomWeather, © 2014

Note: Actual official high and low records may vary slightly from our data, if they occured in-between our weather recording intervals... More about our weather records

Advertising

Historic Weather Conditions — Data for Previous 24 hours

 ConditionsComfort  
Time TempWeatherWind HumidityBarometerVisibility
5:00 AM
Apr 17
27 °FPassing clouds.15 mph69%30.60 "Hg15 mi
4:00 AM27 °FPassing clouds.10 mph69%30.57 "Hg15 mi
3:00 AM27 °FPassing clouds.7 mph74%30.51 "Hg15 mi
2:00 AM28 °FClear.12 mph64%30.47 "Hg15 mi
1:00 AM28 °FPassing clouds.12 mph64%30.45 "Hg15 mi
12:00 AM28 °FPassing clouds.13 mph64%30.43 "Hg15 mi
11:00 PM
Apr 16
28 °FPassing clouds.9 mph64%30.39 "Hg15 mi
10:00 PM30 °FPassing clouds.14 mph64%30.35 "Hg15 mi
9:00 PM30 °FPassing clouds.13 mph64%30.30 "Hg15 mi
8:00 PM30 °FBroken clouds.18 mph69%30.23 "Hg15 mi
7:00 PM34 °FPartly sunny.13 mph81%30.16 "Hg15 mi
6:00 PM36 °FPartly sunny.13 mph81%30.10 "Hg10 mi
5:46 PMN/ABroken clouds.10 mphN/AN/A10 mi
5:00 PM37 °FSprinkles. Fog.9 mph87%30.02 "Hg5 mi
4:00 PM50 °FSprinkles. Mostly cloudy.16 mph94%29.93 "Hg6 mi
3:00 PM52 °FSprinkles. Low clouds.22 mph88%29.87 "Hg5 mi
2:00 PM55 °FSprinkles. Mostly cloudy.22 mph82%29.85 "Hg4 mi
1:00 PM59 °FBroken clouds.26 mph72%29.84 "Hg10 mi
12:00 PM57 °FBroken clouds.26 mph77%29.86 "Hg10 mi
11:00 AM57 °FBroken clouds.24 mph77%29.89 "Hg10 mi
10:00 AM57 °FPartly sunny.24 mph77%29.87 "Hg10 mi
9:00 AM52 °FBroken clouds.22 mph82%29.89 "Hg10 mi
8:00 AM52 °FPartly sunny.20 mph82%29.90 "Hg10 mi
7:00 AM50 °FPartly cloudy.15 mph88%29.91 "Hg10 mi
6:00 AM50 °FMostly cloudy.12 mph88%29.95 "Hg10 mi
Weather by CustomWeather, © 2014

See weather overview